QPF
0.00 0.00 0.00 0.00 0.00 0.00 0.00 0.00 0.00 0.00 0.00 0.00 0.00 0.00 0.00 0.00 0.00 0.00 0.00 0.00 0.00 0.00 0.00 0.00 0.00 0.00 0.00 0.00 0.00 0.00 0.00 0.00
0.00 0.00 0.00 0.00 0.00 0.00 0.00 0.00 0.00 0.00 0.00 0.00 0.00 0.00 0.00 0.00 0.00 0.00 0.00 0.00 0.00 0.00 0.00 0.00 0.00 0.00 0.00 0.00 0.00 0.00 0.00 0.00
0.00 0.00 0.00 0.00 0.00 0.00 0.00 0.00 0.00 0.00 0.00 0.00 0.00 0.00 0.00 0.00 0.00 0.00 0.00 0.00 0.00 0.00 0.00 0.00 0.00 0.00 0.00 0.00 0.00 0.00 0.00 0.00
0.00 0.00 0.00 0.00 0.00 0.00 0.00 0.00 0.00 0.00 0.00 0.00 0.00 0.00 0.00 0.00 0.00 0.00 0.00 0.00 0.00 0.00 0.00 0.00 0.00 0.00 0.00 0.00 0.00 0.00 0.00 0.00
0.00 0.00 0.00 0.00 0.00 0.00 0.00 0.00 0.00 0.00 0.00 0.00 0.00 0.00 0.00 0.00 0.00 0.00 0.00 0.00 0.00 0.00 0.00 0.00 0.00 0.00 0.00 0.00 0.00 0.00 0.00 0.00
0.00 0.00 0.00 0.00 0.00 0.00 0.00 0.00 0.00 0.00 0.00 0.00 0.00 0.00 0.00 0.00 0.00 0.00 0.00 0.00 0.00 0.00 0.00 0.00 0.00 0.00 0.00 0.00 0.00 0.00 0.00 0.00
0.00 0.00 0.00 0.00 0.00 0.00 0.00 0.00 0.00 0.00 0.00 0.00 0.00 0.00 0.00 0.00 0.00 0.00 0.00 0.00 0.00 0.00 0.00 0.00 0.00 0.00 0.00 0.00 0.00 0.00 0.00 0.00
0.00 0.00 0.00 0.00 0.00 0.00 0.00 0.00 0.00 0.00 0.00 0.00 0.00 0.00 0.00 0.00 0.00 0.00 0.00 0.00 0.00 0.00 0.00 0.00 0.00 0.00 0.00 0.00 0.00 0.00 0.00 0.00
0.00 0.00 0.00 0.00 0.00 0.00 0.00 0.00 0.00 0.00 0.00 0.00 0.00 0.00 0.00 0.00 0.00 0.00 0.00 0.00 0.00 0.00 0.00 0.00 0.00 0.00 0.00 0.00 0.00 0.00 0.00 0.00
0.00 0.00 0.00 0.00 0.00 0.00 0.00 0.00 0.00 0.00 0.00 0.00 0.00 0.00 0.00 0.00 0.00 0.00 0.00 0.00 0.00 0.00 0.00 0.00 0.00 0.00 0.00 0.00 0.00 0.00 0.00 0.00
0.00 0.00 0.00 0.00 0.00 0.00 0.00 0.00 0.00 0.00 0.00 0.00 0.00 0.00 0.00 0.00 0.00 0.00 0.00 0.00 0.00 0.00 0.00 0.00 0.00 0.00 0.00 0.00 0.00 0.00 0.00 0.00
0.00 0.00 0.00 0.00 0.00 0.00 0.00 0.00 0.00 0.00 0.00 0.00 0.00 0.00 0.00 0.00 0.00 0.00 0.00 0.00 0.00 0.00 0.00 0.00 0.00 0.00 0.00 0.00 0.00 0.00 0.00 0.00
0.00 0.00 0.00 0.00 0.00 0.00 0.00 0.00 0.00 0.00 0.00 0.00 0.00 0.00 0.00 0.00 0.00 0.00 0.00 0.00 0.00 0.00 0.00 0.00 0.00 0.00 0.00 0.00 0.00 0.00 0.00 0.00
0.00 0.00 0.00 0.00 0.00 0.00 0.00 0.00 0.00 0.00 0.00 0.00 0.00 0.00 0.00 0.00 0.00 0.00 0.00 0.00 0.00 0.00 0.00 0.00 0.00 0.00 0.00 0.00 0.00 0.00 0.00 0.00
0.00 0.00 0.00 0.00 0.00 0.00 0.00 0.00 0.00 0.00 0.00 0.00 0.00 0.00 0.00 0.00 0.00 0.00 0.00 0.00 0.00 0.00 0.00 0.00 0.00 0.00 0.00 0.00 0.00 0.00 0.00 0.00
0.00 0.00 0.00 0.00 0.00 0.00 0.00 0.00 0.00 0.00 0.00 0.00 0.00 0.00 0.00 0.00 0.00 0.00 0.00 0.00 0.00 0.00 0.00 0.00 0.00 0.00 0.00 0.00 0.00 0.00 0.00 0.00
0.00 0.00 0.00 0.00 0.00 0.00 0.01 0.01 0.00 0.03 0.01 0.00 0.00 0.00 0.00 0.00 0.00 0.00 0.00 0.00 0.00 0.00 0.00 0.00 0.00 0.00 0.00 0.00 0.00 0.00 0.00 0.00
0.01 0.00 0.00 0.00 0.00 0.00 0.00 0.01 0.01 0.04 0.09 0.09 0.02 0.00 0.00 0.00 0.00 0.00 0.00 0.00 0.00 0.00 0.00 0.00 0.00 0.00 0.00 0.00 0.00 0.00 0.00 0.00
0.00 0.00 0.00 0.00 0.00 0.00 0.00 0.00 0.00 0.00 0.00 0.00 0.00 0.00 0.00 0.00 0.00 0.00 0.00 0.00 0.00 0.00 0.00 0.00 0.00 0.00 0.00 0.00 0.00 0.00 0.00 0.00
MSLP
992.61 993.27 993.73 992.59 992.32 992.73 992.33 991.73 991.31 990.59 990.41 990.54 990.53 990.65 991.22 991.84 992.17 992.25 993.45 994.99 996.27 997.75 999.19 1000.40 1001.61 1002.59 1003.70 1004.84 1006.06 1006.95 1007.63 1008.46
991.79 992.89 992.87 992.27 992.20 992.26 991.43 990.73 989.98 989.61 989.13 989.01 989.72 990.78 991.06 991.17 991.38 991.87 992.61 993.98 995.21 996.58 998.04 999.44 1000.56 1001.74 1003.00 1004.03 1005.00 1005.97 1006.78 1007.62
991.10 990.51 990.93 991.69 991.01 990.76 991.36 991.17 990.01 989.38 988.19 988.55 989.08 990.04 990.47 990.72 990.70 990.85 991.93 993.13 994.30 995.41 996.78 998.26 999.57 1000.65 1001.79 1002.94 1004.03 1004.99 1005.82 1006.60
989.67 990.29 990.93 991.05 990.77 990.88 990.11 990.41 989.95 989.32 987.88 987.91 988.86 989.43 990.15 989.97 990.02 990.21 990.89 992.13 993.37 994.26 995.64 996.99 998.21 999.37 1000.40 1001.70 1002.79 1003.83 1004.82 1005.78
990.06 989.94 989.85 989.72 989.94 989.67 989.89 989.87 988.92 989.02 988.23 988.35 988.57 988.78 989.32 989.98 990.35 990.37 990.69 991.46 992.44 993.37 994.26 995.45 996.95 998.16 999.10 1000.33 1001.24 1002.53 1003.87 1004.82
988.19 988.76 988.94 989.30 989.58 989.54 989.18 988.51 988.54 988.15 988.57 988.09 988.29 989.06 989.74 990.15 990.16 990.15 990.31 991.50 991.96 992.55 993.23 994.04 995.51 997.02 998.02 998.93 999.98 1001.24 1002.56 1003.44
989.27 988.73 988.57 988.34 988.63 988.88 988.63 988.29 987.93 987.93 987.98 987.84 988.02 988.37 988.92 989.58 990.10 990.02 990.06 990.84 991.84 992.12 992.48 993.33 994.59 995.92 997.15 998.10 999.12 1000.03 1001.24 1002.31
989.20 989.04 988.94 988.27 987.92 988.14 988.36 988.42 988.03 988.15 987.47 987.69 987.89 987.94 988.37 988.88 989.42 989.63 989.69 989.88 991.09 991.98 992.36 993.01 993.96 995.08 996.27 997.39 998.27 999.34 1000.30 1001.12
989.38 989.28 988.77 988.48 987.75 987.56 987.53 987.61 987.90 987.62 987.38 988.16 987.58 987.37 987.44 987.96 988.56 989.24 989.47 989.41 989.86 991.20 991.86 992.42 993.60 994.76 995.69 996.85 997.91 998.76 999.66 1000.54
990.01 989.52 988.78 987.56 988.20 987.72 987.67 987.56 987.58 987.48 987.50 987.59 987.41 987.29 987.25 987.37 987.71 988.26 988.70 988.71 988.97 990.31 991.52 992.49 993.38 994.37 995.54 996.66 997.57 998.29 999.35 1000.22
990.15 989.27 989.90 989.00 989.28 988.48 988.57 987.50 986.98 986.79 987.17 987.22 986.94 986.74 986.56 986.82 987.33 987.45 987.63 987.84 988.43 989.94 991.17 992.28 992.86 993.78 995.03 996.25 997.50 998.34 999.25 1000.25
990.22 989.38 988.17 988.24 989.59 989.69 989.40 988.47 987.92 987.40 987.13 986.97 986.94 986.08 985.70 986.29 987.26 987.86 988.12 987.88 988.23 989.84 991.00 992.22 992.83 993.79 995.01 995.98 997.11 997.93 998.98 1000.08
990.57 989.44 989.00 989.64 989.93 990.33 990.33 990.36 989.89 989.25 988.48 987.28 986.63 986.41 987.44 987.68 987.70 988.39 988.52 988.47 989.18 990.25 991.52 992.30 992.97 994.04 995.35 996.15 996.95 997.94 999.16 1000.21
990.41 990.17 989.65 990.51 990.71 991.00 991.57 991.34 990.51 989.69 989.03 988.02 986.80 987.56 988.50 989.11 989.27 989.14 988.98 989.13 989.94 991.16 992.13 992.82 993.57 994.53 995.40 996.50 997.21 998.11 999.25 1000.33
989.97 990.26 991.41 991.49 991.45 992.24 992.04 991.77 991.08 990.00 989.17 988.69 988.57 989.12 989.70 990.32 990.52 990.44 990.52 990.61 991.26 992.58 992.73 993.68 994.70 995.25 996.19 996.96 997.79 998.74 999.71 1000.85
989.90 991.97 992.44 992.22 992.93 993.11 993.30 993.38 992.34 990.78 990.27 990.30 990.46 990.79 991.14 991.31 991.25 991.26 991.65 992.00 992.64 993.67 993.88 994.60 995.34 996.10 997.03 997.98 998.68 999.46 1000.62 1001.60
991.27 992.81 993.60 994.43 994.60 995.10 995.15 994.71 994.11 993.73 993.52 993.21 992.82 993.02 993.15 993.38 993.21 993.23 993.42 993.19 993.82 994.77 995.27 995.89 996.48 997.24 998.08 998.81 999.45 1000.32 1001.32 1001.99
991.47 992.92 994.21 996.27 996.76 996.60 996.61 996.79 996.44 996.07 995.98 995.92 995.25 995.36 995.37 995.29 995.14 995.33 995.20 994.81 994.90 995.48 996.13 996.72 997.23 997.87 998.59 999.15 999.70 1000.30 1001.08 1001.64
995.01 995.64 997.37 998.33 998.65 999.15 998.87 998.39 997.89 997.56 997.46 997.66 997.11 996.76 996.70 996.47 996.43 996.48 995.95 995.51 995.53 995.89 996.49 997.01 997.51 998.10 999.13 999.57 1000.11 1000.96 1001.09 1001.65
Thickness
5831 5831 5823 5824 5815 5849 5830 5846 5832 5851 5866 5885 5893 5894 5897 5894 5899 5905 5895 5891 5887 5882 5874 5868 5860 5854 5846 5838 5830 5826 5822 5817
5827 5825 5826 5822 5849 5814 5830 5798 5801 5840 5852 5854 5870 5867 5880 5886 5893 5898 5900 5893 5891 5885 5878 5873 5867 5860 5851 5844 5835 5829 5825 5819
5819 5813 5809 5808 5814 5832 5835 5831 5809 5811 5843 5893 5881 5874 5873 5885 5899 5905 5897 5893 5892 5890 5885 5878 5871 5865 5857 5848 5838 5831 5827 5822
5804 5827 5828 5820 5815 5823 5813 5802 5827 5834 5846 5905 5893 5887 5884 5891 5902 5911 5906 5900 5896 5895 5888 5881 5875 5869 5862 5853 5844 5838 5832 5823
5779 5806 5819 5805 5815 5829 5834 5838 5818 5810 5829 5895 5892 5889 5891 5885 5891 5900 5901 5897 5898 5897 5891 5887 5880 5873 5868 5859 5853 5845 5835 5828
5783 5790 5815 5794 5801 5815 5825 5814 5816 5820 5836 5867 5876 5868 5872 5876 5886 5894 5900 5890 5894 5895 5895 5894 5887 5878 5872 5866 5862 5852 5843 5837
5794 5807 5813 5813 5806 5809 5806 5820 5811 5829 5834 5857 5872 5874 5877 5880 5879 5884 5891 5889 5886 5890 5894 5894 5887 5881 5875 5870 5864 5859 5850 5842
5774 5796 5797 5796 5813 5813 5809 5812 5819 5824 5828 5868 5877 5882 5876 5873 5874 5874 5882 5891 5887 5885 5888 5888 5886 5881 5876 5869 5865 5860 5852 5847
5750 5781 5787 5771 5793 5805 5813 5820 5814 5800 5824 5849 5853 5864 5872 5874 5873 5869 5878 5888 5890 5884 5885 5888 5884 5880 5873 5868 5865 5859 5853 5849
5747 5766 5734 5790 5809 5814 5807 5815 5823 5823 5829 5837 5844 5858 5868 5879 5875 5873 5879 5886 5892 5888 5882 5882 5883 5877 5871 5866 5860 5856 5849 5844
5733 5746 5746 5771 5777 5785 5775 5791 5827 5824 5826 5833 5845 5851 5851 5872 5878 5879 5886 5895 5894 5889 5884 5879 5879 5877 5868 5860 5853 5849 5843 5838
5737 5729 5738 5783 5768 5786 5789 5762 5813 5818 5820 5826 5833 5821 5840 5864 5866 5869 5880 5889 5888 5885 5881 5874 5874 5872 5861 5854 5848 5843 5839 5833
5716 5728 5756 5763 5772 5777 5739 5755 5782 5792 5801 5815 5819 5837 5837 5845 5852 5858 5867 5874 5879 5875 5867 5867 5868 5862 5849 5847 5842 5840 5834 5827
5718 5717 5719 5756 5758 5742 5749 5763 5775 5786 5795 5806 5828 5822 5816 5822 5830 5842 5851 5860 5863 5856 5855 5857 5857 5851 5843 5836 5839 5835 5826 5817
5731 5733 5734 5743 5746 5751 5758 5756 5765 5779 5793 5801 5801 5798 5804 5806 5813 5824 5830 5838 5843 5837 5842 5842 5839 5838 5829 5829 5827 5821 5813 5802
5733 5712 5714 5728 5736 5742 5743 5741 5755 5774 5779 5784 5781 5784 5787 5794 5801 5809 5814 5818 5822 5819 5821 5820 5824 5822 5817 5813 5811 5804 5791 5783
5702 5695 5703 5705 5715 5716 5716 5726 5734 5739 5742 5750 5758 5759 5765 5769 5778 5787 5793 5804 5806 5801 5802 5802 5804 5801 5799 5796 5793 5782 5775 5768
5699 5702 5697 5686 5693 5700 5698 5697 5707 5715 5715 5723 5733 5734 5743 5750 5760 5765 5771 5783 5787 5788 5787 5787 5788 5786 5784 5783 5779 5772 5763 5760
5671 5687 5671 5669 5673 5672 5674 5680 5687 5695 5701 5701 5713 5721 5727 5733 5741 5745 5757 5767 5773 5775 5775 5775 5774 5772 5767 5768 5764 5755 5753 5747